| time (UTC) | temp F | wind direction | speed MPH | gust MPH | rain 1hr in | rain 24hr in | rain mn in | humidity % | barometer mb |
| 20260504224504 | 54 | 157 | 4.0 | 11.0 | 0.00 | 0.00 | 0.00 | 90 | 1019.1 |
| 20260504223604 | 54 | 157 | 3.0 | 11.0 | 0.00 | 0.00 | 0.00 | 90 | 1019.0 |
| 20260504222725 | 54 | 157 | 3.0 | 10.0 | 0.00 | 0.00 | 0.00 | 91 | 1018.8 |
| 20260504221804 | 53 | 157 | 3.0 | 10.0 | 0.00 | 0.00 | 0.00 | 91 | 1018.5 |
| 20260504220904 | 53 | 157 | 3.0 | 10.0 | 0.00 | 0.00 | 0.00 | 91 | 1018.4 |
| 20260504220004 | 53 | 157 | 3.0 | 10.0 | 0.00 | 0.00 | 0.00 | 91 | 1018.3 |
| 20260504215404 | 53 | 157 | 3.0 | 10.0 | 0.00 | 0.00 | 0.00 | 91 | 1018.2 |
| 20260504214504 | 53 | 157 | 3.0 | 11.0 | 0.00 | 0.00 | 0.00 | 91 | 1017.9 |
| 20260504213604 | 53 | 157 | 2.0 | 9.0 | 0.00 | 0.00 | 0.00 | 91 | 1017.7 |
| 20260504212725 | 53 | 157 | 2.0 | 5.0 | 0.00 | 0.00 | 0.00 | 91 | 1017.6 |
| 20260504211804 | 53 | 157 | 3.0 | 8.0 | 0.00 | 0.00 | 0.00 | 90 | 1017.4 |
| 20260504210904 | 54 | 157 | 3.0 | 9.0 | 0.00 | 0.00 | 0.00 | 90 | 1017.3 |
| 20260504210004 | 54 | 157 | 3.0 | 11.0 | 0.00 | 0.00 | 0.00 | 90 | 1017.2 |
| 20260504205406 | 54 | 157 | 3.0 | 11.0 | 0.00 | 0.00 | 0.00 | 89 | 1017.2 |
| 20260504204504 | 54 | 157 | 4.0 | 9.0 | 0.00 | 0.00 | 0.00 | 89 | 1017.1 |
| 20260504203604 | 54 | 157 | 4.0 | 13.0 | 0.00 | 0.00 | 0.00 | 88 | 1016.9 |
| 20260504202704 | 54 | 157 | 4.0 | 11.0 | 0.00 | 0.00 | 0.00 | 87 | 1016.7 |
| 20260504201804 | 54 | 157 | 4.0 | 11.0 | 0.00 | 0.00 | 0.00 | 87 | 1016.5 |
| 20260504200925 | 54 | 157 | 4.0 | 11.0 | 0.00 | 0.00 | 0.00 | 87 | 1016.3 |
| 20260504200004 | 54 | 157 | 4.0 | 10.0 | 0.00 | 0.00 | 0.00 | 86 | 1016.2 |
| 20260504195404 | 54 | 157 | 4.0 | 11.0 | 0.00 | 0.00 | 0.00 | 86 | 1016.2 |
| 20260504194504 | 54 | 157 | 4.0 | 14.0 | 0.00 | 0.00 | 0.00 | 86 | 1016.1 |
| 20260504193604 | 54 | 157 | 4.0 | 9.0 | 0.00 | 0.00 | 0.00 | 85 | 1016.1 |
| 20260504192704 | 54 | 157 | 5.0 | 12.0 | 0.00 | 0.00 | 0.00 | 85 | 1016.0 |
| 20260504191825 | 54 | 157 | 5.0 | 15.0 | 0.00 | 0.00 | 0.00 | 85 | 1015.9 |
| 20260504190904 | 54 | 157 | 4.0 | 11.0 | 0.00 | 0.00 | 0.00 | 85 | 1015.8 |
| 20260504190004 | 54 | 157 | 3.0 | 9.0 | 0.00 | 0.00 | 0.00 | 85 | 1015.7 |
| 20260504185404 | 54 | 157 | 3.0 | 8.0 | 0.00 | 0.00 | 0.00 | 85 | 1015.6 |
| 20260504184504 | 54 | 157 | 4.0 | 10.0 | 0.00 | 0.00 | 0.00 | 85 | 1015.6 |
| 20260504183604 | 55 | 157 | 5.0 | 14.0 | 0.00 | 0.00 | 0.00 | 85 | 1015.4 |
| 20260504182704 | 55 | 157 | 5.0 | 13.0 | 0.00 | 0.00 | 0.00 | 84 | 1015.2 |
| 20260504181804 | 55 | 157 | 4.0 | 12.0 | 0.00 | 0.00 | 0.00 | 84 | 1015.2 |
| 20260504180904 | 55 | 157 | 4.0 | 12.0 | 0.00 | 0.00 | 0.00 | 84 | 1015.1 |
| 20260504180004 | 55 | 157 | 5.0 | 13.0 | 0.00 | 0.00 | 0.00 | 83 | 1014.9 |
| 20260504175425 | 55 | 157 | 5.0 | 15.0 | 0.00 | 0.00 | 0.00 | 83 | 1014.9 |
| 20260504174504 | 55 | 157 | 4.0 | 10.0 | 0.00 | 0.00 | 0.00 | 82 | 1014.8 |
| 20260504173604 | 55 | 157 | 5.0 | 12.0 | 0.00 | 0.00 | 0.00 | 82 | 1014.9 |
| 20260504172704 | 55 | 157 | 5.0 | 9.0 | 0.00 | 0.00 | 0.00 | 82 | 1014.8 |
| 20260504171804 | 55 | 157 | 5.0 | 16.0 | 0.00 | 0.00 | 0.00 | 81 | 1014.6 |
| 20260504170904 | 55 | 157 | 5.0 | 16.0 | 0.00 | 0.00 | 0.00 | 81 | 1014.5 |
| 20260504150903 | 56 | 157 | 7.0 | 16.0 | 0.00 | 0.00 | 0.00 | 79 | 1013.8 |
| 20260504140904 | 57 | 157 | 7.0 | 17.0 | 0.00 | 0.00 | 0.00 | 79 | 1013.4 |
| 20260504081804 | 58 | 157 | 10.0 | 25.0 | 0.00 | 0.00 | 0.00 | 75 | 1010.3 |
| 20260504080905 | 58 | 157 | 8.0 | 18.0 | 0.00 | 0.00 | 0.00 | 74 | 1010.1 |
| 20260504050004 | 64 | 157 | 11.0 | 26.0 | 0.00 | 0.09 | 0.00 | 60 | 1008.9 |
| 20260504045404 | 64 | 157 | 11.0 | 28.0 | 0.00 | 0.09 | 0.00 | 59 | 1008.8 |
| 20260504044525 | 64 | 157 | 10.0 | 21.0 | 0.00 | 0.09 | 0.00 | 59 | 1008.9 |
| 20260504043604 | 64 | 157 | 10.0 | 22.0 | 0.00 | 0.09 | 0.00 | 59 | 1008.9 |
| 20260504042704 | 64 | 157 | 10.0 | 25.0 | 0.00 | 0.09 | 0.00 | 60 | 1008.9 |
| 20260504041804 | 63 | 157 | 9.0 | 24.0 | 0.00 | 0.09 | 0.00 | 62 | 1008.9 |
| 20260504040904 | 62 | 157 | 11.0 | 24.0 | 0.00 | 0.09 | 0.00 | 62 | 1009.0 |
| 20260504040004 | 63 | 157 | 11.0 | 25.0 | 0.00 | 0.10 | 0.00 | 59 | 1009.1 |
| 20260504035405 | 64 | 157 | 10.0 | 25.0 | 0.00 | 0.10 | 0.00 | 58 | 1009.1 |
| 20260504034504 | 64 | 157 | 8.0 | 24.0 | 0.00 | 0.10 | 0.00 | 57 | 1009.1 |
| 20260504033604 | 65 | 157 | 8.0 | 20.0 | 0.00 | 0.11 | 0.00 | 59 | 1009.3 |
| 20260504032725 | 64 | 157 | 8.0 | 17.0 | 0.00 | 0.11 | 0.00 | 60 | 1009.3 |
| 20260504031804 | 63 | 157 | 11.0 | 22.0 | 0.00 | 0.12 | 0.00 | 61 | 1009.5 |
| 20260504030904 | 63 | 157 | 9.0 | 26.0 | 0.00 | 0.12 | 0.00 | 59 | 1009.8 |
| 20260504030004 | 63 | 157 | 10.0 | 20.0 | 0.00 | 0.12 | 0.00 | 64 | 1009.7 |
| 20260504025404 | 63 | 157 | 10.0 | 18.0 | 0.00 | 0.12 | 0.00 | 63 | 1009.8 |
| 20260504024504 | 63 | 157 | 10.0 | 18.0 | 0.00 | 0.12 | 0.00 | 62 | 1009.8 |
| 20260504023604 | 63 | 157 | 10.0 | 22.0 | 0.00 | 0.12 | 0.00 | 63 | 1009.7 |
| 20260504022704 | 63 | 157 | 10.0 | 22.0 | 0.00 | 0.12 | 0.00 | 64 | 1009.9 |
| 20260504021804 | 64 | 157 | 10.0 | 21.0 | 0.00 | 0.12 | 0.00 | 62 | 1010.1 |
| 20260504020904 | 63 | 157 | 11.0 | 23.0 | 0.00 | 0.13 | 0.00 | 64 | 1010.1 |
| 20260504015404 | 63 | 157 | 12.0 | 26.0 | 0.00 | 0.17 | 0.00 | 64 | 1010.3 |
| 20260504014504 | 63 | 157 | 11.0 | 25.0 | 0.00 | 0.20 | 0.00 | 64 | 1010.5 |
| 20260504013604 | 63 | 157 | 11.0 | 25.0 | 0.00 | 0.25 | 0.00 | 65 | 1010.5 |
| 20260504012704 | 63 | 157 | 11.0 | 23.0 | 0.00 | 0.31 | 0.00 | 65 | 1010.4 |
| 20260504011825 | 63 | 157 | 10.0 | 27.0 | 0.00 | 0.34 | 0.00 | 66 | 1010.5 |
| 20260504010904 | 64 | 157 | 9.0 | 23.0 | 0.00 | 0.41 | 0.00 | 65 | 1010.6 |
| 20260504010004 | 63 | 157 | 9.0 | 22.0 | 0.00 | 0.45 | 0.00 | 67 | 1010.6 |
| 20260504005404 | 63 | 157 | 9.0 | 21.0 | 0.00 | 0.45 | 0.00 | 67 | 1010.7 |
| 20260504004525 | 62 | 157 | 10.0 | 22.0 | 0.00 | 0.46 | 0.00 | 69 | 1010.8 |
| 20260504003604 | 62 | 157 | 10.0 | 22.0 | 0.00 | 0.50 | 0.00 | 68 | 1010.8 |
| 20260504002704 | 62 | 157 | 10.0 | 25.0 | 0.00 | 0.53 | 0.00 | 69 | 1010.6 |
| 20260504001804 | 61 | 157 | 11.0 | 24.0 | 0.00 | 0.54 | 0.00 | 69 | 1010.7 |
| 20260504000904 | 61 | 157 | 11.0 | 22.0 | 0.00 | 0.54 | 0.00 | 70 | 1010.6 |
| 20260504000004 | 61 | 157 | 11.0 | 22.0 | 0.00 | 0.54 | 0.00 | 69 | 1010.7 |
| 20260503235404 | 60 | 157 | 11.0 | 20.0 | 0.00 | 0.54 | 0.00 | 69 | 1010.9 |
| 20260503234504 | 60 | 157 | 11.0 | 21.0 | 0.00 | 0.54 | 0.00 | 69 | 1010.8 |
| 20260503233604 | 60 | 157 | 9.0 | 21.0 | 0.00 | 0.54 | 0.00 | 69 | 1010.8 |
| 20260503232704 | 60 | 157 | 8.0 | 20.0 | 0.00 | 0.54 | 0.00 | 71 | 1011.1 |
| 20260503231825 | 60 | 157 | 8.0 | 17.0 | 0.00 | 0.54 | 0.00 | 71 | 1011.2 |
| 20260503230904 | 59 | 157 | 9.0 | 19.0 | 0.00 | 0.54 | 0.00 | 72 | 1011.2 |
| 20260503230004 | 59 | 157 | 8.0 | 17.0 | 0.00 | 0.54 | 0.00 | 72 | 1011.3 |
| 20260503225404 | 59 | 157 | 8.0 | 18.0 | 0.00 | 0.54 | 0.00 | 73 | 1011.2 |